CZ-6A R/B, 61570

Orbit data source: Space-Track

CZ-6A R/B, 61570 is space debris in LEO originally from a launch on Tue, 15 Oct 2024 UTC launched from the Taiyaun Space Center, China (TSC). Debris objects in space refer to the collection of defunct objects orbiting the Earth. Examples of debris include non-operational satellites, rocket bodies, and fragments generated from explosions, collisions, or faulty payload assembly.

Loading next visibility...
Identifier
61570, 2024-185U
Orbit
LEO
Country
Flag of CNCN / PRC
Related business
Manufacturer
SAST
Mission
Spacecraft
Bus & Motor
CZ-6A STAGE 2, YF-115
Mass
~6,000 kg wet, ~6,000 kg dry
Launch date (UTC)
2024-10-15 (2 years ago)
Launch vehicle
Unknown
Launch site
Taiyaun Space Center, China (TSC)
Object type
Payload
Rocket body
Debris
Shape & HBR
Unknown shape, 5.5 m
Radar Cross Section
Large (>1 m²)

Expand to show TLE details & history
Last TLE update: 12 hours ago

TLE from 12 hours ago
0 CZ-6A R/B
1 61570U 24185U   26123.88671009  .00000435  00000-0  97880-4 0  9990
2 61570  89.0236  60.2635 0097875 348.7801  11.1223 14.51763823 81232
Epoch: 2026-05-03T21:16Z
TLE epoch observation values (Epoch: 2026-05-03T21:16:51.751Z)
Latitude
-0.00002°
Longitude
-120.73595°
Altitude
654.836 km
Speed
7.566 km/s
True Right ascension
04h 01m 03s
True Declination
0° 00' 00"
Sunlit
Object was in daylight at epoch
Visualization orbit readout
Latitude
Unknown
Longitude
Unknown
Altitude
Unknown
Speed
Unknown
Apparent Right ascension
Unknown
Apparent Declination
Unknown
Sunlit
N/A
Visualization observer readout
Local Sidereal Time
16:40:26
Azimuth
Unknown
Elevation
Unknown
Doppler factor
Unknown
Orbital elements
Apogee altitude
786.24 km
Perigee altitude
647.357 km
Semi-major axis
7,094.936 km
Eccentricity
0.00979
Inclination
89.0236°
RAAN
60.2635°
Arg. of periapsis
348.7801°
True anomaly
11.34128°
Mean anomaly
11.1223°
Eccentric anomaly
11.23153°
Mean motion
3.63179 °/min
Orbital period
99.12 mins
BSTAR
0.00009788
Loading maneuver chart data...
Computing Atmospheric mass density...
Loading historical data...
Loading historical data...
Loading historical data...
Loading historical data...
Loading historical data...
Loading historical data...
Loading historical data...

Documentation

Showing up to 5 results
|